Cherry Point, NC

7:45 AM EDT on August 30, 2016 (GMT -0400)
Cherry Point Marine Corps Air Station

Weather History for KNKT - August, 2014

Change the Weather History Date:

Friday, August 29, 2014

  Actual Average Record
Temperature  
Mean Temperature 80 °F -  
Max Temperature 90 °F 83 °F 91 °F (1997)
Min Temperature 72 °F 68 °F 66 °F (2010)
Cooling Degree Days 15    
Growing Degree Days 30 (Base 50)    
Moisture  
Dew Point 71 °F    
Average Humidity 77    
Maximum Humidity 91    
Minimum Humidity 51    
Precipitation  
Precipitation 0.00 in - - ()
Sea Level Pressure  
Sea Level Pressure 30.10 in    
Wind  
Wind Speed 6 mph (SW)    
Max Wind Speed 15 mph    
Max Gust Speed -    
Visibility 10 miles    
Events      
Averages and records for this station are not official NWS values.
T = Trace of Precipitation, MM = Missing Value Source: NWS Daily Summary

Daily Weather History Graph

Daily Weather History Graph

Search for Another Location

Airport or City:

Trip Planner

Search our weather history database for the weather conditions in past years. The results will help you decide how hot, cold, wet, or windy it might be!

Date:

Astronomy

Aug. 29, 2014 Rise Set
Actual Time 6:38 AM EDT 7:38 PM EDT
Civil Twilight 6:12 AM EDT 8:04 PM EDT
Nautical Twilight 5:41 AM EDT 8:34 PM EDT
Astronomical Twilight 5:09 AM EDT 9:06 PM EDT
Moon 10:15 AM EDT (8/29) 9:45 PM EDT (8/29)
Length of Visible Light 13h 51m
Length of Day
13h 00m
Waxing Crescent, 15% of the Moon is Illuminated
Aug 29
Waxing Crescent
Sep 2
First Quarter
Sep 8
Full
Sep 15
Last Quarter
Sep 24
New

Hourly Weather History & Observations

Time (EDT) Temp. Heat Index Dew Point Humidity Pressure Visibility Wind Dir Wind Speed Gust Speed Precip Events Conditions
12:54 AM 75.0 °F - 71.1 °F 87% 30.04 in 9.0 mi SW 5.8 mph - N/A   Mostly Cloudy
1:54 AM 75.0 °F - 70.0 °F 84% 30.03 in 10.0 mi SW 5.8 mph - N/A   Clear
2:54 AM 73.9 °F - 69.1 °F 85% 30.03 in 10.0 mi WSW 4.6 mph - N/A   Clear
3:54 AM 73.9 °F - 69.1 °F 85% 30.03 in 10.0 mi SW 4.6 mph - N/A   Clear
4:54 AM 73.0 °F - 69.1 °F 87% 30.04 in 10.0 mi SW 4.6 mph - N/A   Clear
5:54 AM 73.0 °F - 69.1 °F 87% 30.04 in 10.0 mi SW 4.6 mph - N/A   Clear
6:54 AM 72.0 °F - 69.1 °F 91% 30.07 in 10.0 mi West 4.6 mph - N/A   Mostly Cloudy
7:54 AM 75.0 °F - 70.0 °F 84% 30.09 in 10.0 mi SW 5.8 mph - N/A   Mostly Cloudy
8:54 AM 79.0 °F - 68.0 °F 69% 30.10 in 10.0 mi West 8.1 mph - N/A   Partly Cloudy
9:54 AM 82.0 °F 84.9 °F 68.0 °F 62% 30.10 in 10.0 mi West 5.8 mph - N/A   Partly Cloudy
10:54 AM 82.0 °F 84.9 °F 68.0 °F 62% 30.11 in 10.0 mi WSW 3.5 mph - N/A   Overcast
11:54 AM 86.0 °F 89.4 °F 68.0 °F 55% 30.11 in 10.0 mi Calm Calm - N/A   Overcast
12:54 PM 87.1 °F 89.9 °F 66.9 °F 51% 30.11 in 10.0 mi Calm Calm - N/A   Clear
1:54 PM 88.0 °F 91.4 °F 68.0 °F 51% 30.11 in 10.0 mi NE 4.6 mph - N/A   Overcast
2:54 PM 84.9 °F 91.4 °F 73.0 °F 67% 30.10 in 9.0 mi ENE 9.2 mph - N/A   Mostly Cloudy
3:54 PM 84.0 °F 91.2 °F 73.9 °F 72% 30.09 in 10.0 mi ENE 13.8 mph - N/A   Overcast
4:54 PM 82.0 °F 87.9 °F 73.9 °F 76% 30.10 in 10.0 mi NE 15.0 mph - N/A   Mostly Cloudy
5:54 PM 82.0 °F 87.4 °F 73.0 °F 74% 30.12 in 10.0 mi ENE 12.7 mph - N/A   Mostly Cloudy
6:54 PM 81.0 °F 85.8 °F 73.0 °F 77% 30.12 in 10.0 mi ENE 8.1 mph - N/A   Partly Cloudy
7:54 PM 79.0 °F - 73.0 °F 82% 30.13 in 10.0 mi East 4.6 mph - N/A   Overcast
8:54 PM 78.1 °F - 73.0 °F 84% 30.14 in 10.0 mi East 4.6 mph - N/A   Overcast
9:54 PM 77.0 °F - 73.0 °F 88% 30.15 in 10.0 mi East 4.6 mph - N/A   Clear
10:54 PM 75.9 °F - 73.0 °F 91% 30.16 in 10.0 mi Calm Calm - N/A   Scattered Clouds
11:54 PM 75.9 °F - 73.0 °F 91% 30.17 in 10.0 mi Calm Calm - N/A   Clear